Regional Weather Roundup
Issued by NWS Kansas City/Pleasant Hill, MO

Home | Current Version | Previous Version | Graphics & Text | Print | Product List | Glossary Off
Versions: 1 2 3 4 5 6 7 8 9 10 11 12 13 14 15 16 17 18 19 20 21 22 23 24 25 26 27 28 29 30 31 32 33 34 35 36 37 38 39 40 41 42 43 44 45 46 47 48 49 50

000
ASUS43 KEAX 251511
RWREAX

WEATHER ROUNDUP FOR EASTERN KANSAS AND NORTHWEST MISSOURI
NATIONAL WEATHER SERVICE KANSAS CITY/PLEASANT HILL MO
1000 AM CDT SAT APR 25 2015

KSZ040-057-103>105-MOZ028-029-037-043-251600-
...KANSAS CITY METROPOLITAN AREA...

CITY           SKY/WX    TMP DP  RH WIND       PRES   REMARKS
K.C. INTL      PTSUNNY   60  56  86 CALM      29.45R
K.C. DOWNTOWN  CLOUDY    62  56  80 CALM      29.44R
LEES SUMMIT    PTSUNNY   61  57  87 VRB5      29.45R
OLATHE - IXD   CLOUDY    59  54  83 W10       29.46R
OLATHE - OJC   CLOUDY    61  55  81 W12       29.45R
LAWRENCE       CLOUDY    59  54  83 W10       29.44R

$$

MOZ001>008-011>017-020>025-030>033-038>040-044>046-053-054-251600-
...NORTHERN AND CENTRAL MISSOURI...

CITY           SKY/WX    TMP DP  RH WIND       PRES   REMARKS
ST. JOSEPH     CLOUDY    60  56  86 E8        29.45R
MOSBY          PTSUNNY   59  57  94 NE5       29.44R
WARRENSBURG    CLOUDY    63  55  77 SW9       29.43S
WHITEMAN AFB   CLOUDY    63  59  87 SW13      29.43R
CLINTON        CLOUDY    64  59  82 SW15      29.45S
SEDALIA        CLOUDY    64  57  78 S12G21    29.45S
WARSAW         NOT AVBL
MARSHALL       CLOUDY    64  63  94 SE5       29.45S
CHILLICOTHE      N/A     56  54  93 NE8       29.48R
MOBERLY        RAIN      55  52  88 E12       29.48  VSB 3/4
KIRKSVILLE     CLOUDY    52  52 100 E13       29.51S FOG

$$

MOZ041-047>049-056>058-063>065-088>090-097-251600-
...EASTERN AND SOUTHERN MISSOURI...

CITY           SKY/WX    TMP DP  RH WIND       PRES   REMARKS
ST. LOUIS INTL DRIZZLE   59  55  87 S8        29.55S FOG
SPIRIT OF STL  CLOUDY    59  55  87 SE6       29.53F
COLUMBIA       CLOUDY    63  58  83 S10       29.47S
JEFFERSON CITY CLOUDY    65  57  75 S8        29.47S
MEXICO         CLOUDY   N/A N/A N/A E7        29.50  FOG
ROLLA          CLOUDY    66  58  75 SW13      29.48F
LEBANON        MOSUNNY   66  54  63 SW21G29   29.50S
OSAGE BEACH    CLOUDY    64  54  68 SW14G20   29.48S
SPRINGFIELD    PTSUNNY   66  54  65 W20G31    29.52R
BRANSON        SUNNY     68  54  60 W16G23    29.56F
JOPLIN         SUNNY     66  54  65 W23G30    29.54R
WEST PLAINS    MOSUNNY   67  57  70 SW16G22   29.56F

$$

IAZ060-094-KSZ022-034>040-054-083-096-NEZ052-066-093-251600-
...KANSAS...SOUTHEAST NEBRASKA AND IOWA...

CITY           SKY/WX    TMP DP  RH WIND       PRES   REMARKS
TOPEKA         CLOUDY    59  55  87 W12       29.44R
MANHATTAN      CLOUDY    59  56  89 NW5       29.51R
EMPORIA        MOSUNNY   62  54  74 W14G24    29.50S
CHANUTE        PTSUNNY   65  54  67 W17       29.53R
WICHITA        MOSUNNY   66  52  60 W16       29.58R
OMAHA          CLOUDY    48  46  93 NE14G20   29.60R
LINCOLN        CLOUDY    51  49  92 NE17      29.58R FOG
FALLS CITY     CLOUDY    56  54  93 NE12      29.46R
LAMONI         CLOUDY    50  47  89 NE16      29.53R FOG
DES MOINES     LGT RAIN  46  42  86 E13       29.62R

$$




USA.gov is the U.S. government's official web portal to all federal, state and local government web resources and services.